Terminal Aerodrome Forecast
Issued by NWS

Home | Current Version | Previous Version | Graphics & Text | Print | Product List | Glossary On
Versions: 1 2 3 4 5 6 7 8 9 10 11 12 13 14 15 16 17 18 19 20 21 22 23 24 25 26 27 28 29 30 31 32 33 34 35
000
FTUS43 KABR 231645 AAG
TAFMBG
TAF AMD
KMBG 231645Z 2317/2412 11015G25KT P6SM VCTS OVC015CB
     FM232000 11018G25KT P6SM OVC010
     FM240100 10018G25KT P6SM BKN040
     FM240300 11020G28KT P6SM SCT100
     FM240400 12019G28KT P6SM BKN250 WS020/15045KT=

USA.gov is the U.S. government's official web portal to all federal, state and local government web resources and services.